| time (UTC) | temp C | wind direction | speed KPH | gust KPH | rain 1hr cm | rain 24hr cm | rain mn cm | humidity % | barometer mb |
| 20260906071525 | 20 | 20 | 0.0 | 0.0 | 0.00 | 0.91 | 0.00 | 92 | 1011.9 |
| 20260906070030 | 20 | 20 | 0.0 | 0.0 | 0.00 | 0.91 | 0.00 | 92 | 1012.1 |
| 20260906064530 | 20 | 20 | 0.0 | 0.0 | 0.00 | 0.91 | 0.00 | 92 | 1012.3 |
| 20260906063036 | 20 | 20 | 0.0 | 0.0 | 0.00 | 0.91 | 0.00 | 92 | 1012.5 |
| 20260906061522 | 20 | 20 | 0.0 | 0.0 | 0.00 | 0.91 | 0.00 | 92 | 1012.9 |
| 20260906060025 | 20 | 20 | 0.0 | 0.0 | 0.00 | 0.91 | 0.00 | 92 | 1013.0 |
| 20260906054533 | 20 | 20 | 0.0 | 0.0 | 0.00 | 0.91 | 0.00 | 92 | 1013.2 |
| 20260906053030 | 20 | 20 | 0.0 | 0.0 | 0.00 | 0.91 | 0.00 | 92 | 1013.2 |
| 20260906051548 | 20 | 20 | 0.0 | 0.0 | 0.00 | 0.91 | 0.00 | 92 | 1013.3 |
| 20260906050017 | 20 | 20 | 0.0 | 0.0 | 0.00 | 0.91 | 0.00 | 92 | 1013.4 |
| 20260906044528 | 20 | 20 | 0.0 | 0.0 | 0.00 | 0.91 | 0.00 | 92 | 1013.4 |
| 20260906043030 | 21 | 20 | 0.0 | 0.0 | 0.00 | 0.91 | 0.00 | 92 | 1013.6 |
| 20260906041531 | 21 | 20 | 0.0 | 0.0 | 0.00 | 0.91 | 0.00 | 92 | 1013.7 |
| 20260906040035 | 21 | 20 | 0.0 | 0.0 | 0.00 | 0.91 | 0.00 | 92 | 1013.8 |
| 20260906034526 | 21 | 20 | 0.0 | 0.0 | 0.00 | 0.91 | 0.91 | 92 | 1013.5 |
| 20260906033038 | 21 | 20 | 0.0 | 0.0 | 0.00 | 0.91 | 0.91 | 91 | 1013.7 |
| 20260906031537 | 21 | 20 | 0.0 | 0.0 | 0.00 | 0.91 | 0.91 | 91 | 1013.8 |
| 20260906030035 | 21 | 20 | 0.0 | 0.0 | 0.00 | 0.91 | 0.91 | 91 | 1013.6 |
| 20260906024545 | 21 | 20 | 0.0 | 0.0 | 0.00 | 0.91 | 0.91 | 92 | 1013.6 |
| 20260906023024 | 21 | 20 | 0.0 | 0.0 | 0.00 | 0.91 | 0.91 | 91 | 1013.5 |
| 20260906021526 | 21 | 20 | 0.0 | 0.0 | 0.00 | 0.91 | 0.91 | 91 | 1013.4 |
| 20260906020030 | 22 | 259 | 0.0 | 0.0 | 0.00 | 0.91 | 0.91 | 91 | 1013.3 |
| 20260906014549 | 22 | 259 | 0.0 | 0.0 | 0.00 | 0.91 | 0.91 | 91 | 1013.5 |
| 20260906013044 | 22 | 259 | 0.0 | 0.0 | 0.00 | 0.91 | 0.91 | 91 | 1013.3 |
| 20260906011526 | 22 | 259 | 0.0 | 0.0 | 0.00 | 0.91 | 0.91 | 91 | 1013.1 |
| 20260906010028 | 22 | 259 | 0.0 | 0.0 | 0.00 | 0.91 | 0.91 | 90 | 1013.0 |
| 20260906004530 | 23 | 269 | 0.0 | 0.0 | 0.00 | 0.91 | 0.91 | 90 | 1012.9 |
| 20260906003034 | 23 | 269 | 0.0 | 0.0 | 0.00 | 0.91 | 0.91 | 89 | 1012.7 |
| 20260906001537 | 23 | 268 | 0.0 | 0.0 | 0.00 | 0.91 | 0.91 | 88 | 1012.1 |
| 20260906000026 | 24 | 264 | 0.0 | 0.0 | 0.00 | 0.91 | 0.91 | 86 | 1012.0 |
| 20260905234532 | 25 | 264 | 0.0 | 0.0 | 0.00 | 0.91 | 0.91 | 83 | 1011.9 |
| 20260905233032 | 25 | 264 | 0.0 | 0.0 | 0.00 | 0.91 | 0.91 | 82 | 1011.7 |
| 20260905231535 | 25 | 264 | 0.0 | 0.0 | 0.00 | 0.91 | 0.91 | 80 | 1011.7 |
| 20260905230037 | 25 | 264 | 0.0 | 0.0 | 0.00 | 0.91 | 0.91 | 81 | 1011.7 |
| 20260905224528 | 26 | 264 | 0.0 | 0.0 | 0.00 | 0.91 | 0.91 | 82 | 1011.7 |
| 20260905223033 | 26 | 264 | 0.0 | 0.0 | 0.00 | 0.91 | 0.91 | 83 | 1011.8 |
| 20260905221524 | 26 | 264 | 0.0 | 0.0 | 0.00 | 0.91 | 0.91 | 81 | 1011.9 |
| 20260905220015 | 26 | 264 | 0.0 | 0.0 | 0.00 | 0.91 | 0.91 | 80 | 1012.0 |
| 20260905214526 | 25 | 264 | 0.0 | 0.0 | 0.00 | 0.91 | 0.91 | 81 | 1012.1 |
| 20260905213022 | 26 | 264 | 0.0 | 0.0 | 0.00 | 0.91 | 0.91 | 82 | 1012.4 |
| 20260905211536 | 26 | 264 | 0.0 | 0.0 | 0.00 | 0.91 | 0.91 | 80 | 1012.4 |
| 20260905210024 | 26 | 264 | 0.0 | 0.0 | 0.00 | 0.91 | 0.91 | 80 | 1012.3 |
| 20260905204526 | 26 | 181 | 0.0 | 0.0 | 0.00 | 0.91 | 0.91 | 88 | 1012.2 |
| 20260905203027 | 25 | 181 | 0.0 | 0.0 | 0.00 | 0.91 | 0.91 | 88 | 1012.4 |
| 20260905201526 | 25 | 179 | 0.0 | 0.0 | 0.00 | 0.91 | 0.91 | 88 | 1012.8 |
| 20260905200035 | 25 | 179 | 0.0 | 0.0 | 0.00 | 0.91 | 0.91 | 89 | 1012.8 |
| 20260905194528 | 25 | 179 | 0.0 | 0.0 | 0.00 | 0.91 | 0.91 | 88 | 1012.8 |
| 20260905193018 | 25 | 134 | 0.0 | 0.0 | 0.00 | 0.91 | 0.91 | 89 | 1012.8 |
| 20260905191527 | 24 | 134 | 0.0 | 0.0 | 0.00 | 0.91 | 0.91 | 90 | 1012.7 |
| 20260905190027 | 24 | 132 | 0.0 | 0.0 | 0.00 | 0.91 | 0.91 | 90 | 1012.4 |
| 20260905184535 | 23 | 132 | 0.0 | 0.0 | 0.00 | 0.91 | 0.91 | 90 | 1012.1 |
| 20260905183032 | 23 | 257 | 0.0 | 0.0 | 0.00 | 0.91 | 0.91 | 91 | 1012.5 |
| 20260905181521 | 22 | 348 | 0.0 | 0.0 | 0.51 | 0.91 | 0.91 | 90 | 1013.1 |
| 20260905180028 | 22 | 293 | 0.0 | 3.2 | 0.89 | 0.91 | 0.91 | 90 | 1013.6 |
| 20260905174530 | 22 | 280 | 0.0 | 1.6 | 0.89 | 0.91 | 0.91 | 88 | 1014.1 |
| 20260905173028 | 23 | 274 | 1.6 | 9.7 | 0.89 | 0.91 | 0.91 | 81 | 1014.6 |
| 20260905171530 | 27 | 243 | 4.8 | 17.7 | 0.38 | 0.41 | 0.41 | 71 | 1014.7 |
| 20260905170024 | 33 | 7 | 0.0 | 3.2 | 0.00 | 0.03 | 0.03 | 54 | 1013.8 |
| 20260905164529 | 35 | 22 | 0.0 | 3.2 | 0.00 | 0.03 | 0.03 | 53 | 1014.0 |
| 20260905163035 | 35 | 37 | 0.0 | 3.2 | 0.00 | 0.03 | 0.03 | 53 | 1014.2 |
| 20260905161535 | 34 | 357 | 0.0 | 3.2 | 0.00 | 0.03 | 0.03 | 53 | 1014.3 |
| 20260905160029 | 33 | 53 | 0.0 | 3.2 | 0.00 | 0.03 | 0.03 | 57 | 1014.6 |
| 20260905154524 | 33 | 222 | 0.0 | 1.6 | 0.03 | 0.03 | 0.03 | 55 | 1014.6 |
| 20260905153031 | 33 | 218 | 0.0 | 4.8 | 0.03 | 0.03 | 0.03 | 57 | 1014.4 |
| 20260905151534 | 32 | 221 | 0.0 | 3.2 | 0.03 | 0.03 | 0.03 | 61 | 1014.3 |
| 20260905150034 | 32 | 278 | 0.0 | 1.6 | 0.03 | 0.03 | 0.03 | 60 | 1014.4 |
| 20260905144532 | 32 | 248 | 0.0 | 3.2 | 0.00 | 0.00 | 0.00 | 62 | 1014.4 |
| 20260905143027 | 31 | 342 | 0.0 | 1.6 | 0.00 | 0.00 | 0.00 | 63 | 1014.5 |
| 20260905141535 | 30 | 279 | 0.0 | 1.6 | 0.00 | 0.00 | 0.00 | 71 | 1014.4 |
| 20260905140036 | 29 | 240 | 0.0 | 1.6 | 0.00 | 0.00 | 0.00 | 74 | 1014.4 |
| 20260905134537 | 28 | 44 | 0.0 | 0.0 | 0.00 | 0.00 | 0.00 | 78 | 1014.5 |
| 20260905133032 | 27 | 44 | 0.0 | 0.0 | 0.00 | 0.00 | 0.00 | 81 | 1014.7 |
| 20260905131504 | 26 | 44 | 0.0 | 1.6 | 0.00 | 0.00 | 0.00 | 86 | 1014.8 |
| 20260905130007 | 24 | 44 | 0.0 | 0.0 | 0.00 | 0.00 | 0.00 | 88 | 1014.9 |
| 20260905124512 | 22 | 44 | 0.0 | 0.0 | 0.00 | 0.00 | 0.00 | 91 | 1014.9 |
| 20260905123021 | 21 | 44 | 0.0 | 0.0 | 0.00 | 0.00 | 0.00 | 92 | 1014.9 |
| 20260905121503 | 21 | 44 | 0.0 | 0.0 | 0.00 | 0.00 | 0.00 | 92 | 1014.8 |
| 20260905120004 | 21 | 44 | 0.0 | 0.0 | 0.00 | 0.00 | 0.00 | 92 | 1014.5 |
| 20260905114510 | 20 | 44 | 0.0 | 0.0 | 0.00 | 0.00 | 0.00 | 92 | 1014.6 |
| 20260905113016 | 20 | 44 | 0.0 | 0.0 | 0.00 | 0.00 | 0.00 | 92 | 1014.4 |
| 20260905111526 | 20 | 44 | 0.0 | 0.0 | 0.00 | 0.00 | 0.00 | 92 | 1014.3 |
| 20260905110004 | 20 | 44 | 0.0 | 1.6 | 0.00 | 0.00 | 0.00 | 92 | 1014.1 |
| 20260905104505 | 20 | 44 | 0.0 | 0.0 | 0.00 | 0.00 | 0.00 | 92 | 1013.9 |
| 20260905103012 | 20 | 44 | 0.0 | 0.0 | 0.00 | 0.00 | 0.00 | 92 | 1014.0 |
| 20260905101522 | 20 | 44 | 0.0 | 0.0 | 0.00 | 0.00 | 0.00 | 92 | 1013.8 |
| 20260905100031 | 20 | 44 | 0.0 | 1.6 | 0.00 | 0.00 | 0.00 | 92 | 1013.8 |
| 20260905094505 | 20 | 257 | 0.0 | 0.0 | 0.00 | 0.00 | 0.00 | 92 | 1013.7 |
| 20260905093008 | 20 | 257 | 0.0 | 0.0 | 0.00 | 0.00 | 0.00 | 92 | 1013.7 |
| 20260905091514 | 20 | 257 | 0.0 | 0.0 | 0.00 | 0.00 | 0.00 | 92 | 1013.6 |
| 20260905090020 | 20 | 257 | 0.0 | 0.0 | 0.00 | 0.00 | 0.00 | 91 | 1013.7 |
| 20260905084526 | 21 | 257 | 0.0 | 0.0 | 0.00 | 0.00 | 0.00 | 91 | 1013.9 |
| 20260905083030 | 21 | 257 | 0.0 | 0.0 | 0.00 | 0.00 | 0.00 | 91 | 1014.1 |
| 20260905081519 | 21 | 257 | 0.0 | 0.0 | 0.00 | 0.00 | 0.00 | 91 | 1014.2 |
| 20260905080029 | 21 | 257 | 0.0 | 0.0 | 0.00 | 0.00 | 0.00 | 91 | 1014.4 |
| 20260905074524 | 21 | 257 | 0.0 | 0.0 | 0.00 | 0.00 | 0.00 | 91 | 1014.4 |
| 20260905073033 | 21 | 257 | 0.0 | 0.0 | 0.00 | 0.00 | 0.00 | 91 | 1014.4 |